Location: *
(50.5492°N, 7.7469°E)
Time: 21:39:32
(UTC+00:00)

CZ-2D R/B - Pass Details

Date: 21 October 2019
Orbit: 522 x 538 km, 97.4° (Epoch: 16 November)

Event Time Altitude Azimuth Distance (km) Brightness Sun altitude
Rises 17:52:08 0° 156° (SSE) 2,668 6.6 -14.4°
Reaches altitude 10° 17:54:15 10° 153° (SSE) 1,785 5.7 -14.7°
Maximum altitude 17:58:03 62° 73° (ENE) 609 3.2 -15.3°
Drops below altitude 10° 18:01:55 10° 353° (N) 1,808 6.1 -16.0°
Sets 18:04:03 0° 350° (N) 2,706 7.0 -16.3°
